| time (UTC) | temp F | wind direction | speed MPH | gust MPH | rain 1hr in | rain 24hr in | rain mn in | humidity % | barometer mb |
| 20260831022041 | 82 | 126 | 3.0 | 4.0 | 0.00 | 0.00 | 0.00 | 60 | 1011.1 |
| 20260831021540 | 82 | 119 | 2.0 | 4.0 | 0.00 | 0.00 | 0.00 | 59 | 1011.0 |
| 20260831021044 | 83 | 119 | 1.0 | 4.0 | 0.00 | 0.00 | 0.00 | 59 | 1011.0 |
| 20260831020541 | 83 | 127 | 3.0 | 4.0 | 0.00 | 0.00 | 0.00 | 58 | 1010.9 |
| 20260831020050 | 83 | 128 | 3.0 | 6.0 | 0.00 | 0.00 | 0.00 | 58 | 1010.9 |
| 20260831015539 | 83 | 128 | 3.0 | 6.0 | 0.00 | 0.00 | 0.00 | 58 | 1010.8 |
| 20260831015041 | 83 | 132 | 3.0 | 6.0 | 0.00 | 0.00 | 0.00 | 57 | 1010.8 |
| 20260831014539 | 84 | 119 | 3.0 | 5.0 | 0.00 | 0.00 | 0.00 | 57 | 1010.7 |
| 20260831014039 | 84 | 133 | 3.0 | 4.0 | 0.00 | 0.00 | 0.00 | 56 | 1010.6 |
| 20260831013539 | 84 | 132 | 3.0 | 5.0 | 0.00 | 0.00 | 0.00 | 56 | 1010.6 |
| 20260831013042 | 84 | 137 | 3.0 | 6.0 | 0.00 | 0.00 | 0.00 | 56 | 1010.5 |
| 20260831012539 | 85 | 144 | 3.0 | 7.0 | 0.00 | 0.00 | 0.00 | 55 | 1010.5 |
| 20260831012039 | 85 | 147 | 3.0 | 7.0 | 0.00 | 0.00 | 0.00 | 55 | 1010.5 |
| 20260831011543 | 85 | 128 | 3.0 | 7.0 | 0.00 | 0.00 | 0.00 | 55 | 1010.6 |
| 20260831011037 | 86 | 125 | 3.0 | 7.0 | 0.00 | 0.00 | 0.00 | 54 | 1010.5 |
| 20260831010538 | 86 | 134 | 3.0 | 7.0 | 0.00 | 0.00 | 0.00 | 54 | 1010.5 |
| 20260831010037 | 86 | 143 | 4.0 | 7.0 | 0.00 | 0.00 | 0.00 | 54 | 1010.4 |
| 20260831005537 | 87 | 138 | 4.0 | 10.0 | 0.00 | 0.00 | 0.00 | 53 | 1010.4 |
| 20260831005037 | 87 | 119 | 4.0 | 10.0 | 0.00 | 0.00 | 0.00 | 53 | 1010.4 |
| 20260831004538 | 87 | 139 | 5.0 | 11.0 | 0.00 | 0.00 | 0.00 | 53 | 1010.4 |
| 20260831004037 | 88 | 126 | 6.0 | 11.0 | 0.00 | 0.00 | 0.00 | 52 | 1010.3 |
| 20260831003537 | 88 | 144 | 3.0 | 12.0 | 0.00 | 0.00 | 0.00 | 52 | 1010.3 |
| 20260831003039 | 88 | 155 | 5.0 | 12.0 | 0.00 | 0.00 | 0.00 | 52 | 1010.2 |
| 20260831002536 | 88 | 134 | 8.0 | 13.0 | 0.00 | 0.00 | 0.00 | 51 | 1010.2 |
| 20260831002035 | 89 | 130 | 7.0 | 13.0 | 0.00 | 0.00 | 0.00 | 51 | 1010.1 |
| 20260831001535 | 89 | 137 | 8.0 | 13.0 | 0.00 | 0.00 | 0.00 | 50 | 1010.1 |
| 20260831001035 | 90 | 138 | 8.0 | 15.0 | 0.00 | 0.00 | 0.00 | 49 | 1010.1 |
| 20260831000536 | 90 | 121 | 8.0 | 13.0 | 0.00 | 0.00 | 0.00 | 49 | 1010.2 |
| 20260831000040 | 90 | 148 | 8.0 | 13.0 | 0.00 | 0.00 | 0.00 | 50 | 1010.1 |
| 20260830235535 | 90 | 130 | 6.0 | 14.0 | 0.00 | 0.00 | 0.00 | 50 | 1010.2 |
| 20260830235034 | 90 | 116 | 5.0 | 14.0 | 0.00 | 0.00 | 0.00 | 50 | 1010.2 |
| 20260830234538 | 90 | 113 | 8.0 | 14.0 | 0.00 | 0.00 | 0.00 | 49 | 1010.2 |
| 20260830234034 | 91 | 131 | 6.0 | 13.0 | 0.00 | 0.00 | 0.00 | 49 | 1010.3 |
| 20260830233536 | 91 | 136 | 5.0 | 12.0 | 0.00 | 0.00 | 0.00 | 50 | 1010.2 |
| 20260830233042 | 90 | 129 | 5.0 | 11.0 | 0.00 | 0.00 | 0.00 | 51 | 1010.2 |
| 20260830232534 | 90 | 94 | 5.0 | 12.0 | 0.00 | 0.00 | 0.00 | 51 | 1010.3 |
| 20260830232034 | 90 | 146 | 4.0 | 14.0 | 0.00 | 0.00 | 0.00 | 51 | 1010.3 |
| 20260830231532 | 91 | 141 | 9.0 | 14.0 | 0.00 | 0.00 | 0.00 | 50 | 1010.2 |
| 20260830231034 | 91 | 134 | 8.0 | 16.0 | 0.00 | 0.00 | 0.00 | 50 | 1010.2 |
| 20260830230532 | 91 | 146 | 11.0 | 17.0 | 0.00 | 0.00 | 0.00 | 49 | 1010.2 |
| 20260830230034 | 92 | 129 | 10.0 | 17.0 | 0.00 | 0.00 | 0.00 | 48 | 1010.1 |
| 20260830225533 | 93 | 142 | 7.0 | 15.0 | 0.00 | 0.00 | 0.00 | 48 | 1010.1 |
| 20260830225032 | 92 | 124 | 6.0 | 13.0 | 0.00 | 0.00 | 0.00 | 48 | 1010.2 |
| 20260830224532 | 92 | 140 | 9.0 | 15.0 | 0.00 | 0.00 | 0.00 | 47 | 1010.2 |
| 20260830224032 | 93 | 127 | 9.0 | 15.0 | 0.00 | 0.00 | 0.00 | 47 | 1010.2 |
| 20260830223532 | 93 | 114 | 7.0 | 16.0 | 0.00 | 0.00 | 0.00 | 46 | 1010.2 |
| 20260830223032 | 93 | 121 | 12.0 | 17.0 | 0.00 | 0.00 | 0.00 | 46 | 1010.2 |
| 20260830222531 | 93 | 123 | 7.0 | 13.0 | 0.00 | 0.00 | 0.00 | 46 | 1010.2 |
| 20260830222030 | 92 | 142 | 5.0 | 12.0 | 0.00 | 0.00 | 0.00 | 47 | 1010.2 |
| 20260830221537 | 92 | 141 | 5.0 | 11.0 | 0.00 | 0.00 | 0.00 | 46 | 1010.2 |
| 20260830221031 | 94 | 122 | 7.0 | 14.0 | 0.00 | 0.00 | 0.00 | 45 | 1010.1 |
| 20260830220531 | 94 | 156 | 8.0 | 14.0 | 0.00 | 0.00 | 0.00 | 45 | 1010.1 |
| 20260830220030 | 94 | 163 | 7.0 | 13.0 | 0.00 | 0.00 | 0.00 | 46 | 1010.2 |
| 20260830215529 | 94 | 148 | 6.0 | 16.0 | 0.00 | 0.00 | 0.00 | 46 | 1010.2 |
| 20260830215030 | 94 | 100 | 7.0 | 16.0 | 0.00 | 0.00 | 0.00 | 46 | 1010.2 |
| 20260830214528 | 94 | 113 | 4.0 | 10.0 | 0.00 | 0.00 | 0.00 | 47 | 1010.2 |
| 20260830214028 | 95 | 170 | 5.0 | 16.0 | 0.00 | 0.00 | 0.00 | 46 | 1010.3 |
| 20260830213528 | 95 | 136 | 7.0 | 16.0 | 0.00 | 0.00 | 0.00 | 47 | 1010.4 |
| 20260830213033 | 95 | 130 | 6.0 | 13.0 | 0.00 | 0.00 | 0.00 | 46 | 1010.4 |
| 20260830212527 | 94 | 142 | 5.0 | 12.0 | 0.00 | 0.00 | 0.00 | 46 | 1010.3 |
| 20260830212026 | 94 | 178 | 8.0 | 16.0 | 0.00 | 0.00 | 0.00 | 46 | 1010.4 |
| 20260830211525 | 95 | 172 | 5.0 | 18.0 | 0.00 | 0.00 | 0.00 | 45 | 1010.6 |
| 20260830211029 | 96 | 147 | 5.0 | 15.0 | 0.00 | 0.00 | 0.00 | 44 | 1010.6 |
| 20260830210524 | 96 | 184 | 7.0 | 14.0 | 0.00 | 0.00 | 0.00 | 46 | 1010.7 |
| 20260830210023 | 96 | 131 | 8.0 | 14.0 | 0.00 | 0.00 | 0.00 | 45 | 1010.7 |
| 20260830205522 | 95 | 246 | 4.0 | 11.0 | 0.00 | 0.00 | 0.00 | 46 | 1010.8 |
| 20260830205020 | 96 | 130 | 6.0 | 12.0 | 0.00 | 0.00 | 0.00 | 46 | 1011.0 |
| 20260830204524 | 96 | 192 | 8.0 | 12.0 | 0.00 | 0.00 | 0.00 | 46 | 1011.1 |
| 20260830204020 | 95 | 188 | 4.0 | 14.0 | 0.00 | 0.00 | 0.00 | 45 | 1011.2 |
| 20260830203518 | 95 | 144 | 8.0 | 14.0 | 0.00 | 0.00 | 0.00 | 46 | 1011.2 |
| 20260830203017 | 94 | 188 | 7.0 | 16.0 | 0.00 | 0.00 | 0.00 | 48 | 1011.2 |
| 20260830202516 | 94 | 185 | 5.0 | 16.0 | 0.00 | 0.00 | 0.00 | 47 | 1011.4 |
| 20260830202014 | 94 | 170 | 9.0 | 16.0 | 0.00 | 0.00 | 0.00 | 48 | 1011.4 |
| 20260830201515 | 94 | 135 | 5.0 | 15.0 | 0.00 | 0.00 | 0.00 | 48 | 1011.5 |
| 20260830201013 | 94 | 155 | 8.0 | 16.0 | 0.00 | 0.00 | 0.00 | 48 | 1011.6 |
| 20260830200515 | 95 | 222 | 9.0 | 16.0 | 0.00 | 0.00 | 0.00 | 47 | 1011.8 |
| 20260830200011 | 94 | 184 | 6.0 | 14.0 | 0.00 | 0.00 | 0.00 | 48 | 1011.9 |
| 20260830195510 | 94 | 181 | 3.0 | 14.0 | 0.00 | 0.00 | 0.00 | 49 | 1011.8 |
| 20260830195009 | 94 | 212 | 9.0 | 15.0 | 0.00 | 0.00 | 0.00 | 48 | 1012.0 |
| 20260830194508 | 93 | 212 | 9.0 | 14.0 | 0.00 | 0.00 | 0.00 | 48 | 1012.0 |
| 20260830194006 | 93 | 180 | 8.0 | 15.0 | 0.00 | 0.00 | 0.00 | 48 | 1012.1 |
| 20260830193504 | 93 | 159 | 8.0 | 15.0 | 0.00 | 0.00 | 0.00 | 48 | 1012.1 |
| 20260830193005 | 93 | 200 | 7.0 | 12.0 | 0.00 | 0.00 | 0.00 | 49 | 1012.2 |
| 20260830192502 | 93 | 164 | 4.0 | 18.0 | 0.00 | 0.00 | 0.00 | 49 | 1012.3 |
| 20260830192002 | 93 | 169 | 8.0 | 15.0 | 0.00 | 0.00 | 0.00 | 49 | 1012.4 |
| 20260830191601 | 93 | 175 | 10.0 | 18.0 | 0.00 | 0.00 | 0.00 | 50 | 1012.5 |
| 20260830191059 | 92 | 119 | 7.0 | 18.0 | 0.00 | 0.00 | 0.00 | 50 | 1012.5 |
| 20260830190558 | 92 | 188 | 6.0 | 16.0 | 0.00 | 0.00 | 0.00 | 50 | 1012.5 |
| 20260830190104 | 93 | 154 | 9.0 | 16.0 | 0.00 | 0.00 | 0.00 | 50 | 1012.6 |
| 20260830185554 | 93 | 186 | 7.0 | 14.0 | 0.00 | 0.00 | 0.00 | 49 | 1012.6 |
| 20260830185055 | 92 | 209 | 7.0 | 14.0 | 0.00 | 0.00 | 0.00 | 50 | 1012.7 |
| 20260830184559 | 92 | 121 | 2.0 | 13.0 | 0.00 | 0.00 | 0.00 | 49 | 1012.7 |
| 20260830184052 | 92 | 105 | 4.0 | 14.0 | 0.00 | 0.00 | 0.00 | 51 | 1012.9 |
| 20260830183550 | 92 | 157 | 9.0 | 14.0 | 0.00 | 0.00 | 0.00 | 50 | 1013.0 |
| 20260830183049 | 92 | 200 | 7.0 | 14.0 | 0.00 | 0.00 | 0.00 | 48 | 1013.2 |
| 20260830182548 | 92 | 163 | 7.0 | 14.0 | 0.00 | 0.00 | 0.00 | 49 | 1013.2 |
| 20260830182048 | 91 | 165 | 7.0 | 16.0 | 0.00 | 0.00 | 0.00 | 50 | 1013.2 |
| 20260830181546 | 90 | 143 | 10.0 | 16.0 | 0.00 | 0.00 | 0.00 | 50 | 1013.3 |
| 20260830181045 | 91 | 136 | 7.0 | 16.0 | 0.00 | 0.00 | 0.00 | 54 | 1013.5 |
| 20260830180545 | 90 | 178 | 4.0 | 17.0 | 0.00 | 0.00 | 0.00 | 54 | 1013.4 |
| 20260830180044 | 90 | 150 | 10.0 | 17.0 | 0.00 | 0.00 | 0.00 | 54 | 1013.6 |
| 20260830175544 | 90 | 161 | 8.0 | 14.0 | 0.00 | 0.00 | 0.00 | 55 | 1013.6 |
| 20260830175044 | 91 | 148 | 8.0 | 15.0 | 0.00 | 0.00 | 0.00 | 54 | 1013.7 |
| 20260830174544 | 90 | 164 | 6.0 | 15.0 | 0.00 | 0.00 | 0.00 | 55 | 1013.8 |
| 20260830174043 | 90 | 138 | 7.0 | 14.0 | 0.00 | 0.00 | 0.00 | 54 | 1013.8 |
| 20260830173545 | 90 | 178 | 7.0 | 14.0 | 0.00 | 0.00 | 0.00 | 55 | 1013.8 |
| 20260830173045 | 90 | 84 | 4.0 | 15.0 | 0.00 | 0.00 | 0.00 | 56 | 1013.9 |
| 20260830172539 | 89 | 196 | 8.0 | 14.0 | 0.00 | 0.00 | 0.00 | 56 | 1014.0 |
| 20260830172038 | 89 | 173 | 6.0 | 14.0 | 0.00 | 0.00 | 0.00 | 59 | 1014.0 |
| 20260830171543 | 88 | 172 | 7.0 | 13.0 | 0.00 | 0.00 | 0.00 | 60 | 1014.1 |
| 20260830171037 | 88 | 140 | 8.0 | 12.0 | 0.00 | 0.00 | 0.00 | 61 | 1014.1 |
| 20260830170538 | 88 | 144 | 7.0 | 12.0 | 0.00 | 0.00 | 0.00 | 61 | 1014.2 |
| 20260830170042 | 87 | 169 | 4.0 | 11.0 | 0.00 | 0.00 | 0.00 | 61 | 1014.3 |
| 20260830165533 | 87 | 178 | 5.0 | 12.0 | 0.00 | 0.00 | 0.00 | 62 | 1014.3 |
| 20260830165031 | 87 | 165 | 8.0 | 12.0 | 0.00 | 0.00 | 0.00 | 62 | 1014.2 |
| 20260830164531 | 87 | 191 | 5.0 | 12.0 | 0.00 | 0.00 | 0.00 | 63 | 1014.3 |
| 20260830164030 | 86 | 194 | 7.0 | 14.0 | 0.00 | 0.00 | 0.00 | 64 | 1014.4 |
| 20260830163529 | 86 | 168 | 6.0 | 12.0 | 0.00 | 0.00 | 0.00 | 66 | 1014.4 |
| 20260830163032 | 86 | 131 | 6.0 | 10.0 | 0.00 | 0.00 | 0.00 | 67 | 1014.4 |
| 20260830162528 | 86 | 194 | 6.0 | 10.0 | 0.00 | 0.00 | 0.00 | 68 | 1014.5 |
| 20260830162026 | 85 | 148 | 5.0 | 10.0 | 0.00 | 0.00 | 0.00 | 69 | 1014.5 |
| 20260830161524 | 85 | 171 | 3.0 | 10.0 | 0.00 | 0.00 | 0.00 | 70 | 1014.5 |
| 20260830161023 | 84 | 180 | 5.0 | 10.0 | 0.00 | 0.00 | 0.00 | 71 | 1014.5 |
| 20260830160524 | 84 | 190 | 5.0 | 10.0 | 0.00 | 0.00 | 0.00 | 73 | 1014.5 |
| 20260830160026 | 84 | 207 | 5.0 | 10.0 | 0.00 | 0.00 | 0.00 | 73 | 1014.5 |
| 20260830155520 | 83 | 173 | 6.0 | 13.0 | 0.00 | 0.00 | 0.00 | 73 | 1014.4 |
| 20260830155021 | 83 | 169 | 7.0 | 13.0 | 0.00 | 0.00 | 0.00 | 74 | 1014.4 |
| 20260830154518 | 82 | 186 | 5.0 | 11.0 | 0.00 | 0.00 | 0.00 | 75 | 1014.3 |
| 20260830154016 | 82 | 152 | 5.0 | 9.0 | 0.00 | 0.00 | 0.00 | 77 | 1014.2 |
| 20260830153516 | 81 | 196 | 4.0 | 8.0 | 0.00 | 0.00 | 0.00 | 77 | 1014.2 |
| 20260830153014 | 81 | 158 | 5.0 | 10.0 | 0.00 | 0.00 | 0.00 | 77 | 1014.3 |
| 20260830152513 | 81 | 153 | 3.0 | 10.0 | 0.00 | 0.00 | 0.00 | 79 | 1014.2 |
| 20260830152015 | 81 | 207 | 6.0 | 9.0 | 0.00 | 0.00 | 0.00 | 78 | 1014.1 |
| 20260830151511 | 80 | 144 | 5.0 | 10.0 | 0.00 | 0.00 | 0.00 | 80 | 1014.1 |
| 20260830151012 | 80 | 161 | 6.0 | 9.0 | 0.00 | 0.00 | 0.00 | 82 | 1014.2 |
| 20260830150513 | 79 | 176 | 6.0 | 9.0 | 0.00 | 0.00 | 0.00 | 82 | 1014.1 |
| 20260830150012 | 79 | 180 | 4.0 | 9.0 | 0.00 | 0.00 | 0.00 | 81 | 1014.1 |
| 20260830145510 | 79 | 194 | 4.0 | 8.0 | 0.00 | 0.00 | 0.00 | 82 | 1014.2 |
| 20260830145011 | 78 | 205 | 4.0 | 9.0 | 0.00 | 0.00 | 0.00 | 83 | 1014.2 |
| 20260830144508 | 78 | 232 | 4.0 | 9.0 | 0.00 | 0.00 | 0.00 | 84 | 1014.2 |
| 20260830144011 | 77 | 192 | 6.0 | 9.0 | 0.00 | 0.00 | 0.00 | 85 | 1014.2 |
| 20260830143508 | 77 | 171 | 6.0 | 10.0 | 0.00 | 0.00 | 0.00 | 85 | 1014.3 |
| 20260830143008 | 77 | 181 | 5.0 | 8.0 | 0.00 | 0.00 | 0.00 | 86 | 1014.3 |
| 20260830142508 | 76 | 201 | 5.0 | 10.0 | 0.00 | 0.00 | 0.00 | 87 | 1014.2 |
| 20260830142010 | 76 | 165 | 7.0 | 10.0 | 0.00 | 0.00 | 0.00 | 89 | 1014.3 |
| 20260830141507 | 75 | 183 | 5.0 | 11.0 | 0.00 | 0.00 | 0.00 | 90 | 1014.2 |
| 20260830141006 | 74 | 171 | 8.0 | 11.0 | 0.00 | 0.00 | 0.00 | 91 | 1014.3 |
| 20260830140505 | 74 | 155 | 7.0 | 11.0 | 0.00 | 0.00 | 0.00 | 92 | 1014.3 |
| 20260830140005 | 73 | 182 | 6.0 | 12.0 | 0.00 | 0.00 | 0.00 | 93 | 1014.2 |
| 20260830135507 | 73 | 189 | 5.0 | 11.0 | 0.00 | 0.00 | 0.00 | 93 | 1014.1 |
| 20260830135005 | 73 | 175 | 4.0 | 10.0 | 0.00 | 0.00 | 0.00 | 94 | 1014.2 |
| 20260830134508 | 73 | 179 | 6.0 | 8.0 | 0.00 | 0.00 | 0.00 | 94 | 1014.2 |
| 20260830134005 | 73 | 185 | 5.0 | 9.0 | 0.00 | 0.00 | 0.00 | 95 | 1014.1 |
| 20260830133504 | 72 | 148 | 6.0 | 8.0 | 0.00 | 0.00 | 0.00 | 96 | 1014.0 |
| 20260830133010 | 72 | 205 | 4.0 | 8.0 | 0.00 | 0.00 | 0.00 | 96 | 1013.9 |
| 20260830132503 | 72 | 173 | 5.0 | 10.0 | 0.00 | 0.00 | 0.00 | 97 | 1014.0 |
| 20260830132003 | 72 | 186 | 4.0 | 10.0 | 0.00 | 0.00 | 0.00 | 96 | 1013.9 |
| 20260830131504 | 72 | 205 | 5.0 | 8.0 | 0.00 | 0.00 | 0.00 | 97 | 1013.8 |
| 20260830131006 | 72 | 176 | 4.0 | 10.0 | 0.00 | 0.00 | 0.00 | 97 | 1013.6 |
| 20260830130503 | 71 | 212 | 5.0 | 10.0 | 0.00 | 0.00 | 0.00 | 97 | 1013.6 |
| 20260830130002 | 71 | 184 | 6.0 | 9.0 | 0.00 | 0.00 | 0.00 | 97 | 1013.6 |
| 20260830125503 | 71 | 190 | 5.0 | 7.0 | 0.00 | 0.00 | 0.00 | 96 | 1013.5 |
| 20260830125003 | 71 | 194 | 2.0 | 5.0 | 0.00 | 0.00 | 0.00 | 96 | 1013.5 |
| 20260830124501 | 71 | 180 | 2.0 | 7.0 | 0.00 | 0.00 | 0.00 | 96 | 1013.5 |
| 20260830124001 | 71 | 180 | 3.0 | 6.0 | 0.00 | 0.00 | 0.00 | 96 | 1013.4 |
| 20260830123502 | 71 | 196 | 2.0 | 6.0 | 0.00 | 0.00 | 0.00 | 96 | 1013.4 |
| 20260830123002 | 71 | 175 | 3.0 | 6.0 | 0.00 | 0.00 | 0.00 | 95 | 1013.4 |
| 20260830122501 | 71 | 185 | 4.0 | 7.0 | 0.00 | 0.00 | 0.00 | 95 | 1013.3 |
| 20260830122101 | 71 | 166 | 3.0 | 8.0 | 0.00 | 0.00 | 0.00 | 95 | 1013.4 |
| 20260830121601 | 71 | 196 | 4.0 | 8.0 | 0.00 | 0.00 | 0.00 | 95 | 1013.4 |
| 20260830121100 | 72 | 186 | 4.0 | 8.0 | 0.00 | 0.00 | 0.00 | 95 | 1013.4 |
| 20260830120600 | 72 | 196 | 4.0 | 7.0 | 0.00 | 0.00 | 0.00 | 95 | 1013.4 |
| 20260830115604 | 72 | 186 | 3.0 | 9.0 | 0.00 | 0.00 | 0.00 | 95 | 1013.3 |
| 20260830115059 | 72 | 157 | 4.0 | 9.0 | 0.00 | 0.00 | 0.00 | 95 | 1013.3 |
| 20260830114606 | 72 | 169 | 5.0 | 8.0 | 0.00 | 0.00 | 0.00 | 95 | 1013.4 |
| 20260830114058 | 72 | 182 | 4.0 | 6.0 | 0.00 | 0.00 | 0.00 | 95 | 1013.4 |
| 20260830113558 | 72 | 165 | 3.0 | 6.0 | 0.00 | 0.00 | 0.00 | 95 | 1013.4 |
| 20260830113059 | 72 | 185 | 4.0 | 7.0 | 0.00 | 0.00 | 0.00 | 95 | 1013.3 |
| 20260830112558 | 71 | 165 | 2.0 | 6.0 | 0.00 | 0.00 | 0.00 | 94 | 1013.3 |
| 20260830112101 | 71 | 188 | 4.0 | 7.0 | 0.00 | 0.00 | 0.00 | 94 | 1013.3 |
| 20260830111557 | 71 | 179 | 4.0 | 6.0 | 0.00 | 0.00 | 0.00 | 94 | 1013.3 |
| 20260830111057 | 71 | 141 | 3.0 | 7.0 | 0.00 | 0.00 | 0.00 | 94 | 1013.2 |
| 20260830110558 | 71 | 140 | 3.0 | 7.0 | 0.00 | 0.00 | 0.00 | 94 | 1013.2 |
| 20260830110057 | 71 | 160 | 2.0 | 5.0 | 0.00 | 0.00 | 0.00 | 94 | 1013.2 |
| 20260830105600 | 70 | 157 | 3.0 | 7.0 | 0.00 | 0.00 | 0.00 | 93 | 1013.3 |
| 20260830105057 | 70 | 172 | 3.0 | 7.0 | 0.00 | 0.00 | 0.00 | 93 | 1013.2 |
| 20260830104555 | 70 | 169 | 3.0 | 6.0 | 0.00 | 0.00 | 0.00 | 92 | 1013.2 |
| 20260830104055 | 71 | 185 | 2.0 | 5.0 | 0.00 | 0.00 | 0.00 | 92 | 1013.3 |
| 20260830103558 | 71 | 190 | 3.0 | 6.0 | 0.00 | 0.00 | 0.00 | 92 | 1013.1 |
| 20260830103055 | 71 | 174 | 2.0 | 4.0 | 0.00 | 0.00 | 0.00 | 92 | 1013.2 |
| 20260830102554 | 71 | 192 | 3.0 | 4.0 | 0.00 | 0.00 | 0.00 | 91 | 1013.2 |
| 20260830102057 | 71 | 189 | 1.0 | 3.0 | 0.00 | 0.00 | 0.00 | 91 | 1013.2 |
| 20260830101555 | 71 | 184 | 1.0 | 3.0 | 0.00 | 0.00 | 0.00 | 91 | 1013.2 |
| 20260830101152 | 71 | 181 | 1.0 | 3.0 | 0.00 | 0.00 | 0.00 | 90 | 1013.2 |
| 20260830100556 | 71 | 180 | 1.0 | 3.0 | 0.00 | 0.00 | 0.00 | 90 | 1013.3 |
| 20260830100050 | 71 | 200 | 0.0 | 3.0 | 0.00 | 0.00 | 0.00 | 90 | 1013.3 |
| 20260830095550 | 71 | 207 | 1.0 | 6.0 | 0.00 | 0.00 | 0.00 | 90 | 1013.3 |
| 20260830095049 | 72 | 172 | 2.0 | 5.0 | 0.00 | 0.00 | 0.00 | 90 | 1013.3 |
| 20260830094549 | 72 | 140 | 3.0 | 8.0 | 0.00 | 0.00 | 0.00 | 90 | 1013.3 |
| 20260830094049 | 72 | 178 | 2.0 | 8.0 | 0.00 | 0.00 | 0.00 | 90 | 1013.3 |
| 20260830093552 | 72 | 172 | 4.0 | 9.0 | 0.00 | 0.00 | 0.00 | 90 | 1013.3 |
| 20260830093049 | 72 | 170 | 5.0 | 9.0 | 0.00 | 0.00 | 0.00 | 90 | 1013.3 |
| 20260830092548 | 72 | 164 | 4.0 | 8.0 | 0.00 | 0.00 | 0.00 | 90 | 1013.3 |
| 20260830092047 | 72 | 186 | 5.0 | 8.0 | 0.00 | 0.00 | 0.00 | 90 | 1013.3 |
| 20260830091547 | 72 | 166 | 4.0 | 8.0 | 0.00 | 0.00 | 0.00 | 90 | 1013.2 |
| 20260830091046 | 72 | 168 | 4.0 | 7.0 | 0.00 | 0.00 | 0.00 | 90 | 1013.2 |
| 20260830090547 | 72 | 182 | 4.0 | 6.0 | 0.00 | 0.00 | 0.00 | 90 | 1013.2 |
| 20260830090045 | 72 | 161 | 3.0 | 6.0 | 0.00 | 0.00 | 0.00 | 89 | 1013.3 |
| 20260830085544 | 72 | 163 | 4.0 | 5.0 | 0.00 | 0.00 | 0.00 | 89 | 1013.2 |
| 20260830085043 | 73 | 207 | 4.0 | 6.0 | 0.00 | 0.00 | 0.00 | 89 | 1013.2 |
| 20260830084545 | 73 | 192 | 3.0 | 4.0 | 0.00 | 0.00 | 0.00 | 89 | 1013.3 |
| 20260830084042 | 73 | 195 | 2.0 | 6.0 | 0.00 | 0.00 | 0.00 | 88 | 1013.2 |
| 20260830083542 | 73 | 188 | 3.0 | 6.0 | 0.00 | 0.00 | 0.00 | 88 | 1013.3 |
| 20260830083041 | 73 | 198 | 4.0 | 6.0 | 0.00 | 0.00 | 0.00 | 88 | 1013.4 |
| 20260830082541 | 73 | 189 | 3.0 | 5.0 | 0.00 | 0.00 | 0.00 | 87 | 1013.4 |
| 20260830082038 | 74 | 186 | 2.0 | 8.0 | 0.00 | 0.00 | 0.00 | 87 | 1013.4 |
| 20260830081541 | 74 | 191 | 4.0 | 10.0 | 0.00 | 0.00 | 0.00 | 87 | 1013.3 |
| 20260830081037 | 74 | 184 | 4.0 | 10.0 | 0.00 | 0.00 | 0.00 | 87 | 1013.3 |
| 20260830080536 | 74 | 182 | 4.0 | 10.0 | 0.00 | 0.00 | 0.00 | 86 | 1013.4 |
| 20260830080035 | 74 | 178 | 5.0 | 9.0 | 0.00 | 0.00 | 0.00 | 86 | 1013.5 |
| 20260830075536 | 74 | 180 | 4.0 | 10.0 | 0.00 | 0.00 | 0.00 | 86 | 1013.6 |
| 20260830075034 | 74 | 141 | 7.0 | 10.0 | 0.00 | 0.00 | 0.00 | 86 | 1013.6 |
| 20260830074534 | 74 | 152 | 5.0 | 10.0 | 0.00 | 0.00 | 0.00 | 86 | 1013.7 |
| 20260830074032 | 75 | 152 | 6.0 | 10.0 | 0.00 | 0.00 | 0.00 | 85 | 1013.7 |
| 20260830073532 | 75 | 157 | 5.0 | 9.0 | 0.00 | 0.00 | 0.00 | 85 | 1013.7 |
| 20260830073031 | 75 | 194 | 5.0 | 9.0 | 0.00 | 0.00 | 0.00 | 85 | 1013.7 |
| 20260830072532 | 75 | 164 | 6.0 | 9.0 | 0.00 | 0.00 | 0.00 | 85 | 1013.8 |
| 20260830072030 | 75 | 157 | 5.0 | 9.0 | 0.00 | 0.00 | 0.00 | 84 | 1013.9 |
| 20260830071529 | 75 | 158 | 4.0 | 9.0 | 0.00 | 0.00 | 0.00 | 84 | 1013.9 |
| 20260830071030 | 75 | 181 | 4.0 | 8.0 | 0.00 | 0.00 | 0.00 | 84 | 1013.9 |
| 20260830070527 | 75 | 168 | 3.0 | 8.0 | 0.00 | 0.00 | 0.00 | 83 | 1013.9 |
| 20260830070027 | 76 | 184 | 5.0 | 9.0 | 0.00 | 0.00 | 0.00 | 83 | 1013.9 |
| 20260830065526 | 76 | 173 | 6.0 | 9.0 | 0.00 | 0.00 | 0.00 | 83 | 1013.9 |
| 20260830065027 | 76 | 155 | 5.0 | 10.0 | 0.00 | 0.00 | 0.00 | 82 | 1014.1 |
| 20260830064525 | 76 | 175 | 6.0 | 10.0 | 0.00 | 0.00 | 0.00 | 82 | 1014.0 |
| 20260830064024 | 76 | 196 | 6.0 | 10.0 | 0.00 | 0.00 | 0.00 | 82 | 1014.0 |
| 20260830063523 | 76 | 174 | 5.0 | 10.0 | 0.00 | 0.00 | 0.00 | 81 | 1013.9 |
| 20260830063032 | 76 | 159 | 6.0 | 10.0 | 0.00 | 0.00 | 0.00 | 81 | 1013.9 |
| 20260830062520 | 76 | 163 | 3.0 | 10.0 | 0.00 | 0.00 | 0.00 | 80 | 1013.9 |
| 20260830062019 | 77 | 166 | 4.0 | 8.0 | 0.00 | 0.00 | 0.00 | 80 | 1014.0 |
| 20260830061521 | 77 | 179 | 4.0 | 7.0 | 0.00 | 0.00 | 0.00 | 80 | 1014.0 |
| 20260830061018 | 77 | 171 | 4.0 | 7.0 | 0.00 | 0.00 | 0.00 | 79 | 1014.1 |
| 20260830060517 | 77 | 176 | 4.0 | 7.0 | 0.00 | 0.00 | 0.00 | 79 | 1014.0 |
| 20260830060017 | 77 | 167 | 3.0 | 11.0 | 0.00 | 0.00 | 0.00 | 78 | 1014.0 |
| 20260830055519 | 77 | 211 | 4.0 | 10.0 | 0.00 | 0.00 | 0.00 | 78 | 1014.0 |
| 20260830055015 | 77 | 165 | 4.0 | 9.0 | 0.00 | 0.00 | 0.00 | 77 | 1014.0 |
| 20260830054514 | 78 | 194 | 5.0 | 8.0 | 0.00 | 0.00 | 0.00 | 77 | 1014.0 |
| 20260830054013 | 78 | 168 | 5.0 | 10.0 | 0.00 | 0.00 | 0.00 | 76 | 1014.0 |
| 20260830053512 | 78 | 195 | 3.0 | 10.0 | 0.00 | 0.00 | 0.00 | 76 | 1013.9 |
| 20260830053011 | 78 | 184 | 3.0 | 9.0 | 0.00 | 0.00 | 0.00 | 75 | 1013.8 |
| 20260830052512 | 78 | 211 | 4.0 | 9.0 | 0.00 | 0.00 | 0.00 | 75 | 1013.9 |
| 20260830052009 | 79 | 188 | 4.0 | 11.0 | 0.00 | 0.00 | 0.00 | 74 | 1013.9 |
| 20260830051514 | 79 | 192 | 5.0 | 11.0 | 0.00 | 0.00 | 0.00 | 74 | 1013.8 |
| 20260830051007 | 79 | 189 | 3.0 | 12.0 | 0.00 | 0.00 | 0.00 | 74 | 1013.8 |
| 20260830050506 | 79 | 173 | 6.0 | 12.0 | 0.00 | 0.00 | 0.00 | 74 | 1013.7 |
| 20260830050005 | 79 | 150 | 4.0 | 10.0 | 0.00 | 0.00 | 0.00 | 73 | 1013.7 |
| 20260830045504 | 80 | 173 | 6.0 | 10.0 | 0.00 | 0.00 | 0.00 | 73 | 1013.8 |
| 20260830045003 | 80 | 186 | 6.0 | 14.0 | 0.00 | 0.00 | 0.00 | 73 | 1013.7 |
| 20260830044503 | 80 | 174 | 8.0 | 14.0 | 0.00 | 0.00 | 0.00 | 73 | 1013.7 |
| 20260830044003 | 80 | 163 | 7.0 | 17.0 | 0.00 | 0.00 | 0.00 | 72 | 1013.7 |
| 20260830043505 | 80 | 175 | 9.0 | 17.0 | 0.00 | 0.00 | 0.00 | 72 | 1013.7 |
| 20260830043009 | 80 | 164 | 8.0 | 17.0 | 0.00 | 0.00 | 0.00 | 72 | 1013.7 |
| 20260830042503 | 80 | 169 | 6.0 | 13.0 | 0.00 | 0.00 | 0.00 | 71 | 1013.7 |
| 20260830042005 | 80 | 165 | 8.0 | 12.0 | 0.00 | 0.00 | 0.00 | 71 | 1013.7 |
| 20260830041503 | 80 | 163 | 7.0 | 17.0 | 0.00 | 0.00 | 0.00 | 70 | 1013.6 |
| 20260830041002 | 81 | 160 | 10.0 | 17.0 | 0.00 | 0.00 | 0.00 | 70 | 1013.6 |
| 20260830040501 | 81 | 152 | 6.0 | 12.0 | 0.00 | 0.00 | 0.00 | 68 | 1013.6 |
| 20260830040002 | 81 | 163 | 7.0 | 12.0 | 0.00 | 0.00 | 0.00 | 67 | 1013.7 |
| 20260830035502 | 81 | 177 | 7.0 | 10.0 | 0.00 | 0.00 | 0.00 | 67 | 1013.6 |
| 20260830035003 | 81 | 150 | 5.0 | 13.0 | 0.00 | 0.00 | 0.00 | 66 | 1013.6 |
| 20260830034503 | 81 | 152 | 6.0 | 13.0 | 0.00 | 0.00 | 0.00 | 66 | 1013.5 |
| 20260830034001 | 81 | 145 | 7.0 | 12.0 | 0.00 | 0.00 | 0.00 | 66 | 1013.5 |
| 20260830033600 | 80 | 138 | 5.0 | 9.0 | 0.00 | 0.00 | 0.00 | 66 | 1013.3 |
| 20260830033100 | 80 | 137 | 3.0 | 6.0 | 0.00 | 0.00 | 0.00 | 66 | 1013.3 |
| 20260830032600 | 80 | 166 | 3.0 | 6.0 | 0.00 | 0.00 | 0.00 | 65 | 1013.2 |
| 20260830032100 | 81 | 146 | 3.0 | 5.0 | 0.00 | 0.00 | 0.00 | 65 | 1013.2 |
| 20260830031559 | 81 | 159 | 2.0 | 4.0 | 0.00 | 0.00 | 0.00 | 65 | 1013.2 |
| 20260830031100 | 81 | 156 | 2.0 | 4.0 | 0.00 | 0.00 | 0.00 | 64 | 1013.2 |
| 20260830030602 | 81 | 139 | 2.0 | 4.0 | 0.00 | 0.00 | 0.00 | 64 | 1013.0 |
| 20260830030100 | 81 | 155 | 2.0 | 7.0 | 0.00 | 0.00 | 0.00 | 64 | 1013.0 |
| 20260830025601 | 81 | 125 | 2.0 | 8.0 | 0.00 | 0.00 | 0.00 | 63 | 1013.0 |
| 20260830025058 | 81 | 136 | 3.0 | 7.0 | 0.00 | 0.00 | 0.00 | 63 | 1012.9 |
| 20260830024558 | 81 | 144 | 3.0 | 7.0 | 0.00 | 0.00 | 0.00 | 63 | 1012.9 |
| 20260830024101 | 81 | 132 | 2.0 | 6.0 | 0.00 | 0.00 | 0.00 | 62 | 1012.8 |
| 20260830023559 | 82 | 135 | 2.0 | 4.0 | 0.00 | 0.00 | 0.00 | 62 | 1012.8 |
| 20260830023101 | 82 | 113 | 2.0 | 7.0 | 0.00 | 0.00 | 0.00 | 62 | 1012.7 |
| 20260830022601 | 82 | 146 | 2.0 | 7.0 | 0.00 | 0.00 | 0.00 | 61 | 1012.6 |